Total_Precipitation_Accumulation
1.28 1.27 1.22 1.19 1.21 1.19 1.11 1.06 1.04 1.04 1.02 0.96 0.89 0.85 0.82 0.81 0.86 0.97 1.03 1.03 1.06 1.04 1.00 0.99 1.03 1.08 1.17 1.15 1.19 1.25 1.40 1.59 1.67 1.42 1.24 1.19 1.23 1.25 1.24 1.19 1.04 0.91 0.85
1.16 1.17 1.08 1.03 1.03 1.08 1.04 0.95 0.90 0.90 0.88 0.85 0.82 0.79 0.75 0.77 0.84 0.87 0.88 0.86 0.92 0.90 0.87 0.86 0.87 0.94 1.03 1.06 1.10 1.14 1.23 1.38 1.50 1.50 1.33 1.22 1.20 1.23 1.25 1.24 1.01 0.81 0.76
1.14 1.17 1.16 1.09 1.04 1.00 0.95 0.86 0.80 0.82 0.84 0.81 0.79 0.80 0.80 0.75 0.77 0.78 0.75 0.76 0.80 0.83 0.81 0.78 0.79 0.87 0.90 0.93 0.98 1.02 1.07 1.10 1.25 1.28 1.16 1.10 1.08 1.09 1.23 1.24 1.15 1.08 0.76
1.02 1.12 1.15 1.09 1.01 0.93 0.90 0.90 0.83 0.80 0.77 0.75 0.75 0.74 0.71 0.66 0.68 0.70 0.67 0.72 0.79 0.75 0.70 0.70 0.72 0.71 0.72 0.80 0.84 0.95 1.04 1.13 1.18 1.19 1.10 1.00 1.04 1.10 1.33 1.39 1.30 1.14 0.93
0.93 0.98 0.95 0.91 0.92 0.85 0.81 0.85 0.80 0.76 0.72 0.72 0.68 0.67 0.62 0.59 0.59 0.61 0.58 0.56 0.67 0.68 0.66 0.66 0.64 0.61 0.60 0.65 0.68 0.78 0.95 1.12 1.19 1.24 1.16 1.05 1.05 1.21 1.30 1.26 1.24 1.12 0.96
0.90 0.90 0.82 0.76 0.76 0.72 0.72 0.68 0.65 0.67 0.72 0.72 0.73 0.70 0.63 0.56 0.61 0.59 0.50 0.53 0.61 0.65 0.67 0.68 0.63 0.56 0.52 0.53 0.53 0.60 0.75 0.94 1.12 1.26 1.21 1.14 1.08 1.20 1.30 1.26 1.32 1.32 1.21
0.88 0.83 0.79 0.77 0.75 0.70 0.67 0.66 0.65 0.66 0.70 0.73 0.73 0.72 0.68 0.61 0.62 0.57 0.53 0.54 0.63 0.73 0.76 0.75 0.64 0.54 0.61 0.62 0.60 0.57 0.61 0.69 0.93 1.21 1.33 1.22 1.17 1.26 1.41 1.41 1.43 1.44 1.35
0.87 0.80 0.74 0.74 0.75 0.73 0.75 0.78 0.75 0.71 0.74 0.81 0.81 0.75 0.73 0.68 0.65 0.60 0.56 0.57 0.60 0.68 0.71 0.71 0.75 0.76 0.68 0.64 0.58 0.64 0.73 0.80 0.84 0.92 1.14 1.17 1.06 1.10 1.28 1.36 1.40 1.37 1.30
0.82 0.73 0.67 0.64 0.69 0.69 0.71 0.74 0.75 0.76 0.78 0.83 0.82 0.79 0.78 0.73 0.64 0.59 0.62 0.64 0.60 0.60 0.58 0.58 0.66 0.71 0.66 0.61 0.64 0.74 0.82 0.88 0.75 0.83 0.92 1.04 1.10 1.04 1.04 1.14 1.37 1.54 1.55
0.71 0.63 0.58 0.60 0.64 0.64 0.65 0.69 0.73 0.76 0.77 0.77 0.80 0.81 0.77 0.71 0.59 0.53 0.57 0.58 0.58 0.56 0.59 0.62 0.60 0.56 0.56 0.57 0.67 0.83 0.93 0.91 0.93 1.08 1.25 1.36 1.33 1.23 1.08 1.17 1.45 1.66 1.70
0.57 0.58 0.62 0.65 0.68 0.64 0.68 0.73 0.74 0.72 0.76 0.75 0.73 0.70 0.68 0.57 0.47 0.43 0.43 0.44 0.50 0.53 0.60 0.66 0.64 0.53 0.52 0.51 0.61 0.77 0.91 0.95 1.19 1.50 1.56 1.47 1.39 1.33 1.23 1.21 1.33 1.50 1.67
0.60 0.62 0.64 0.67 0.56 0.53 0.68 0.71 0.67 0.73 0.77 0.70 0.65 0.63 0.57 0.49 0.37 0.31 0.30 0.33 0.39 0.48 0.67 0.65 0.60 0.55 0.48 0.48 0.58 0.76 0.86 1.09 1.41 1.62 1.53 1.34 1.21 1.14 1.10 1.08 1.16 1.25 1.42
0.75 0.75 0.68 0.66 0.64 0.67 0.70 0.66 0.64 0.66 0.62 0.50 0.47 0.49 0.45 0.45 0.41 0.30 0.27 0.30 0.36 0.42 0.58 0.62 0.59 0.57 0.56 0.70 0.80 0.92 1.04 1.27 1.52 1.52 1.37 1.24 1.15 1.07 1.00 1.03 1.04 1.09 1.08
0.83 0.76 0.70 0.72 0.76 0.73 0.66 0.54 0.52 0.48 0.45 0.44 0.42 0.41 0.40 0.38 0.33 0.27 0.26 0.30 0.37 0.41 0.52 0.68 0.76 0.80 0.83 0.95 1.06 1.16 1.26 1.35 1.34 1.28 1.17 1.11 1.03 1.01 0.98 0.99 1.03 1.02 1.07
0.86 0.78 0.71 0.64 0.64 0.65 0.51 0.38 0.37 0.35 0.32 0.37 0.40 0.37 0.37 0.34 0.25 0.26 0.26 0.28 0.35 0.42 0.50 0.70 0.92 0.99 1.06 1.13 1.14 1.19 1.25 1.21 1.17 1.13 1.09 1.03 0.98 0.97 0.98 0.99 1.05 1.00 1.01
0.79 0.73 0.62 0.51 0.47 0.42 0.38 0.36 0.30 0.26 0.27 0.30 0.34 0.31 0.25 0.24 0.22 0.22 0.26 0.31 0.38 0.48 0.56 0.79 1.00 1.06 1.09 1.12 1.11 1.13 1.14 1.09 1.02 1.01 1.04 1.01 0.99 0.97 0.99 1.03 1.09 1.07 1.07
0.68 0.62 0.47 0.36 0.33 0.33 0.34 0.42 0.44 0.34 0.28 0.28 0.27 0.26 0.25 0.25 0.23 0.22 0.27 0.34 0.39 0.47 0.57 0.79 0.99 1.14 1.17 1.08 1.02 1.01 1.05 1.04 1.00 0.99 0.99 0.99 0.95 0.92 0.96 1.00 1.02 1.01 1.02
0.49 0.41 0.34 0.30 0.26 0.24 0.24 0.31 0.45 0.49 0.44 0.42 0.36 0.29 0.27 0.27 0.26 0.25 0.28 0.32 0.43 0.51 0.64 0.80 0.94 1.02 1.06 1.06 0.98 0.96 0.97 0.98 0.98 0.96 0.94 0.94 0.92 0.89 0.88 0.92 0.93 0.88 0.87
0.37 0.31 0.28 0.24 0.22 0.21 0.21 0.25 0.33 0.37 0.42 0.47 0.45 0.36 0.31 0.30 0.32 0.32 0.30 0.34 0.45 0.54 0.65 0.74 0.82 0.83 0.81 0.83 0.82 0.82 0.84 0.87 0.87 0.84 0.84 0.87 0.88 0.87 0.85 0.82 0.79 0.72 0.74
0.29 0.24 0.22 0.18 0.17 0.18 0.19 0.24 0.31 0.32 0.35 0.41 0.42 0.37 0.32 0.37 0.44 0.43 0.39 0.39 0.41 0.47 0.56 0.64 0.70 0.67 0.65 0.65 0.64 0.63 0.65 0.67 0.66 0.66 0.68 0.70 0.74 0.76 0.74 0.70 0.68 0.68 0.73
0.19 0.19 0.18 0.15 0.15 0.17 0.18 0.24 0.29 0.28 0.28 0.34 0.34 0.28 0.30 0.36 0.46 0.50 0.51 0.51 0.50 0.48 0.50 0.52 0.57 0.61 0.60 0.59 0.56 0.52 0.52 0.53 0.53 0.55 0.59 0.64 0.66 0.66 0.62 0.60 0.59 0.59 0.63
0.19 0.20 0.15 0.13 0.14 0.16 0.18 0.21 0.23 0.22 0.23 0.24 0.23 0.21 0.27 0.31 0.38 0.42 0.50 0.57 0.58 0.55 0.51 0.49 0.52 0.57 0.62 0.62 0.55 0.50 0.49 0.49 0.49 0.53 0.57 0.60 0.60 0.56 0.52 0.51 0.51 0.54 0.56
0.16 0.19 0.16 0.13 0.14 0.17 0.20 0.21 0.21 0.19 0.20 0.20 0.19 0.20 0.23 0.31 0.34 0.38 0.44 0.51 0.55 0.55 0.51 0.49 0.53 0.57 0.59 0.61 0.57 0.48 0.43 0.41 0.41 0.44 0.52 0.55 0.54 0.51 0.48 0.49 0.49 0.52 0.55
0.16 0.19 0.17 0.15 0.15 0.16 0.18 0.19 0.17 0.16 0.17 0.17 0.17 0.19 0.23 0.29 0.32 0.36 0.40 0.44 0.49 0.53 0.52 0.51 0.52 0.52 0.51 0.52 0.47 0.38 0.34 0.33 0.32 0.34 0.40 0.47 0.48 0.45 0.44 0.45 0.45 0.46 0.48
0.15 0.17 0.15 0.14 0.15 0.16 0.17 0.17 0.15 0.14 0.14 0.14 0.16 0.18 0.19 0.23 0.27 0.29 0.33 0.37 0.42 0.47 0.47 0.46 0.47 0.43 0.40 0.39 0.37 0.30 0.29 0.30 0.31 0.32 0.36 0.40 0.40 0.42 0.44 0.44 0.42 0.42 0.44
0.14 0.15 0.15 0.16 0.20 0.21 0.20 0.17 0.15 0.14 0.14 0.15 0.16 0.16 0.16 0.19 0.23 0.25 0.27 0.30 0.35 0.41 0.44 0.43 0.40 0.37 0.33 0.31 0.31 0.31 0.30 0.28 0.28 0.31 0.36 0.41 0.42 0.44 0.45 0.45 0.41 0.43 0.48